[[{"header":{"parameterUnit":"m.s-1","parameterCategory":2,"la1":30.2991,"la2":30.254,"lo1":-89.0895,"lo2":-89.0444,"dy":0.0017,"dx":0.0017,"nx":28,"ny":28,"refTime":"2025-08-04T03:00:00:Z","depth":"0","parameterNumber":2,"parameterNumberName":"U-component_of_CURRENTS"},"data":[0,0,0,0,0,0,0,0,0,0,0,0,0,0,0,0,0,0,0,0,0,0,0,0,0,0,0,0,0,0,0,0,0,0,0,0,0,0,0,0,0,0,0,0,0,0,0,0,0,0,0,0,0,0,0,0,0,0,-0.2775,-0.2775,0,-0.272,-0.2719,-0.2718,-0.2669,-0.2669,-0.2669,-0.2669,-0.2504,-0.25,-0.2496,0,0,0,0,0,0,0,0,0,0,0,0,0,-0.2472,-0.248,-0.2775,-0.2775,-0.2775,-0.272,-0.2719,-0.2717,-0.2669,-0.2669,-0.2669,-0.2669,-0.2506,-0.2501,-0.2495,0,0,0,0,0,0,0,0,0,0,0,0,0,-0.2523,-0.2482,-0.2775,-0.2749,-0.2747,-0.2721,-0.2719,-0.2717,-0.2669,-0.2669,-0.2669,-0.2669,-0.2508,-0.2501,-0.2495,-0.2452,0,0,-0.2474,-0.2471,0,0,0,0,0,0,0,0,-0.2521,-0.2534,-0.2753,-0.2751,-0.2749,-0.2707,-0.2552,-0.2625,-0.2668,-0.2691,-0.2669,-0.2669,-0.2567,-0.2555,-0.2536,-0.2444,-0.2437,-0.2474,-0.247,-0.2467,-0.2465,0,0,0,0,0,0,0,-0.2518,-0.2534,-0.2746,-0.2753,-0.2751,-0.2615,-0.2625,-0.2564,-0.2622,-0.2689,-0.2687,-0.2692,-0.2564,-0.2543,-0.2532,-0.2435,-0.2474,-0.2468,-0.2464,-0.2461,-0.2362,-0.2363,0,0,0,0,0,0,-0.256,-0.2534,-0.2748,-0.2745,-0.264,-0.2623,-0.2633,-0.2715,-0.2624,-0.2614,-0.2692,-0.269,-0.2554,-0.254,-0.2526,-0.255,-0.2467,-0.2461,-0.2457,-0.236,-0.2362,-0.2363,0,0,0,0,0,0,-0.2555,-0.2583,-0.2751,-0.2637,-0.265,-0.2632,-0.2721,-0.2714,-0.2704,-0.2629,-0.2615,-0.2692,-0.2554,-0.2535,-0.2491,-0.254,-0.2458,-0.2452,-0.2359,-0.2361,-0.2363,-0.2545,0,0,0,0,0,0,-0.2548,-0.2583,-0.2647,-0.2644,-0.2659,-0.2772,-0.2721,-0.2713,-0.271,-0.2707,-0.2624,-0.2608,-0.2552,-0.2502,-0.2485,-0.2529,-0.2446,-0.2357,-0.236,-0.2362,-0.2537,-0.2553,-0.2567,0,0,0,0,0,-0.2538,-0.2643,-0.2653,-0.2677,-0.2756,-0.2775,-0.277,-0.2745,-0.271,-0.2729,-0.2662,-0.2611,-0.2506,-0.2497,-0.2477,-0.2521,-0.2356,-0.2359,-0.2362,-0.2531,-0.255,-0.2566,0,0,0,0,0,0,-0.2556,-0.2649,-0.2659,-0.2793,-0.2796,-0.277,-0.2784,-0.2754,-0.2714,-0.2703,-0.2615,-0.2596,-0.2575,-0.2516,-0.2509,-0.2498,-0.2427,-0.2426,-0.2563,-0.258,-0.2594,-0.2623,-0.2441,0,0,0,0,0,-0.2592,-0.2691,-0.2729,-0.2827,-0.2839,-0.2806,-0.2805,-0.2791,-0.2758,-0.274,-0.2681,-0.2616,-0.2569,-0.2551,-0.2493,-0.2482,-0.2446,-0.2499,-0.2514,-0.2527,-0.2536,-0.2577,-0.2598,-0.2373,-0.2373,-0.2373,0,0,-0.2621,-0.2685,-0.2739,-0.2833,-0.2827,-0.2857,-0.2805,-0.2826,-0.2838,-0.2726,-0.2715,-0.2654,-0.2572,-0.2567,-0.2555,-0.2529,-0.256,-0.2531,-0.2543,-0.2545,-0.2583,-0.2605,-0.2625,-0.2375,-0.2375,-0.2375,0,0,-0.2688,-0.2789,-0.2863,-0.2883,-0.2907,-0.2902,-0.2915,-0.2902,-0.289,-0.2869,-0.2799,-0.2778,-0.2689,-0.267,-0.2638,-0.2695,-0.2627,-0.2673,-0.2783,-0.2825,-0.2845,-0.2862,-0.2804,-0.2814,-0.2694,-0.2695,-0.2695,0,-0.2701,-0.2832,-0.2875,-0.2927,-0.2949,-0.293,-0.2972,-0.2965,-0.2933,-0.2933,-0.289,-0.2816,-0.2745,-0.2763,-0.278,-0.2733,-0.2711,-0.273,-0.2849,-0.2866,-0.288,-0.2816,-0.2826,-0.2704,-0.2703,-0.2702,-0.2701,0,-0.2799,-0.2891,-0.2932,-0.3011,-0.3039,-0.308,-0.3087,-0.3095,-0.3068,-0.3058,-0.3063,-0.299,-0.2947,-0.2938,-0.2864,-0.294,-0.287,-0.2859,-0.2818,-0.2915,-0.2839,-0.2846,-0.2717,-0.2714,-0.2711,-0.2709,0,0,-0.2841,-0.2976,-0.2983,-0.3025,-0.3089,-0.3117,-0.316,-0.3197,-0.3211,-0.3208,-0.323,-0.319,-0.316,-0.3122,-0.3064,-0.3106,-0.3161,-0.3034,-0.3032,-0.2996,-0.3192,-0.2965,-0.2949,-0.3192,-0.3195,-0.3198,-0.3083,0,-0.2884,-0.3006,-0.3061,-0.3147,-0.3205,-0.322,-0.3254,-0.3285,-0.3284,-0.33,-0.3294,-0.3273,-0.3231,-0.3199,-0.3253,-0.3152,-0.3193,-0.3188,-0.3083,-0.3078,-0.2885,-0.2956,-0.282,-0.2694,-0.3089,-0.309,-0.3091,0,-0.2935,-0.3023,-0.3125,-0.3222,-0.3245,-0.3282,-0.3338,-0.3365,-0.3401,-0.3395,-0.3433,-0.3393,-0.3411,-0.3368,-0.335,-0.3349,-0.3293,-0.3248,-0.3243,-0.2976,-0.2867,-0.2665,-0.269,-0.2682,-0.31,-0.3099,-0.3099,0,-0.2921,-0.3053,-0.314,-0.3176,-0.3285,-0.3311,-0.3347,-0.3391,-0.3376,-0.3448,-0.3401,-0.3492,-0.3398,-0.3462,-0.3285,-0.3351,-0.3224,-0.3302,-0.3064,-0.3042,-0.2872,-0.2831,-0.2895,-0.3349,-0.3349,-0.335,-0.335,0,-0.2945,-0.3003,-0.3137,-0.3183,-0.3242,-0.3319,-0.3344,-0.3386,-0.3399,-0.3337,-0.3429,-0.3339,-0.3416,-0.3309,-0.3306,-0.3117,-0.3232,-0.3078,-0.302,-0.2919,-0.2886,-0.2821,-0.2851,-0.3345,-0.3346,-0.3347,-0.3348,0,-0.2885,-0.2989,-0.3077,-0.3208,-0.3233,-0.3263,-0.328,-0.3264,-0.3301,-0.3208,-0.3203,-0.3176,-0.3061,-0.3056,-0.3031,-0.3003,-0.2873,-0.2852,-0.2655,-0.2578,-0.2441,-0.2483,-0.2416,-0.2354,-0.2682,-0.2677,-0.2671,0,-0.2861,-0.291,-0.305,-0.3061,-0.3105,-0.3148,-0.3128,-0.3198,-0.3142,-0.3045,-0.2952,-0.2837,-0.2697,-0.2553,-0.2537,-0.2502,-0.2563,-0.2329,-0.2476,-0.2403,-0.2412,-0.2459,-0.2419,-0.2309,-0.2302,-0.2296,-0.2291,0,-0.2778,-0.2826,-0.2889,-0.2936,-0.2938,-0.2926,-0.2904,-0.2839,-0.2832,-0.2744,-0.2551,-0.2454,-0.2292,-0.2178,-0.2085,-0.2077,-0.2275,-0.2199,-0.2232,-0.2206,-0.2158,-0.2075,-0.235,-0.2236,-0.2241,-0.2245,-0.2248,-0.225,-0.2656,-0.2668,-0.2739,-0.2758,-0.2754,-0.2656,-0.2548,-0.2506,-0.238,-0.2183,-0.2185,-0.2011,-0.194,-0.1834,-0.1774,-0.1683,-0.1851,-0.1745,-0.1818,-0.1883,-0.1793,-0.187,-0.1623,-0.1625,-0.1627,-0.1628,-0.1629,0,-0.2469,-0.2506,-0.2534,-0.2528,-0.2432,-0.2493,-0.234,-0.2189,-0.1968,-0.1896,-0.1752,-0.1649,-0.151,-0.1502,-0.1426,-0.1366,-0.1409,-0.1358,-0.1486,-0.1482,-0.1637,-0.1589,-0.119,-0.119,-0.1191,-0.1191,-0.1191,-0.1191,-0.2362,-0.2337,-0.2382,-0.2216,-0.2172,-0.1939,-0.1798,-0.1635,-0.1543,-0.1354,-0.1316,-0.1343,-0.1349,-0.1414,-0.1307,-0.1237,-0.1288,-0.1184,-0.1271,-0.1478,-0.1524,-0.1569,-0.1536,-0.1132,-0.1132,-0.1071,-0.1071,-0.1071]},{"header":{"parameterUnit":"m.s-1","parameterCategory":2,"la1":30.2991,"la2":30.254,"lo1":-89.0895,"lo2":-89.0444,"dy":0.0017,"dx":0.0017,"nx":28,"ny":28,"refTime":"2025-08-04T03:00:00:Z","depth":"0","parameterNumber":3,"parameterNumberName":"V-component_of_CURRENTS"},"data":[0,0,0,0,0,0,0,0,0,0,0,0,0,0,0,0,0,0,0,0,0,0,0,0,0,0,0,0,0,0,0,0,0,0,0,0,0,0,0,0,0,0,0,0,0,0,0,0,0,0,0,0,0,0,0,0,0,0,0.0612,0.0614,0,0.0696,0.0697,0.0697,0.0708,0.0708,0.0707,0.0707,0.0743,0.0744,0.0746,0,0,0,0,0,0,0,0,0,0,0,0,0,0.0227,0.0235,0.0612,0.0614,0.0615,0.0696,0.0697,0.0697,0.0708,0.0708,0.0707,0.0707,0.0743,0.0744,0.0746,0,0,0,0,0,0,0,0,0,0,0,0,0,0.0357,0.0238,0.0612,0.0634,0.0637,0.0696,0.0697,0.0698,0.0708,0.0708,0.0707,0.0707,0.0742,0.0744,0.0746,0.0769,0,0,0.0752,0.0753,0,0,0,0,0,0,0,0,0.035,0.0371,0.0629,0.0632,0.0636,0.0695,0.0574,0.0721,0.0708,0.0676,0.0707,0.0706,0.0726,0.0729,0.074,0.0771,0.0772,0.0752,0.0753,0.0754,0.0755,0,0,0,0,0,0,0,0.0341,0.0366,0.0641,0.0631,0.0635,0.0559,0.0579,0.0601,0.0698,0.0679,0.0681,0.0698,0.0727,0.0738,0.0741,0.0773,0.0752,0.0754,0.0755,0.0756,0.079,0.079,0,0,0,0,0,0,0.0355,0.036,0.0638,0.0644,0.0494,0.0568,0.0589,0.0673,0.0699,0.0705,0.0699,0.0698,0.0735,0.0739,0.0742,0.0733,0.0754,0.0756,0.0757,0.079,0.079,0.079,0,0,0,0,0,0,0.0348,0.0382,0.0635,0.0501,0.0529,0.0578,0.0669,0.0675,0.0685,0.0716,0.0719,0.0703,0.0735,0.074,0.0748,0.0735,0.0757,0.0758,0.079,0.079,0.079,0.0738,0,0,0,0,0,0,0.0338,0.038,0.0436,0.0506,0.0538,0.0653,0.0671,0.0677,0.0699,0.0699,0.0721,0.0724,0.0735,0.0745,0.075,0.0739,0.076,0.0791,0.079,0.079,0.074,0.0736,0.0732,0,0,0,0,0,0.0324,0.0411,0.044,0.0472,0.0619,0.0654,0.0661,0.0686,0.0699,0.0694,0.071,0.0723,0.0745,0.0746,0.0752,0.0741,0.0791,0.079,0.079,0.0742,0.0737,0.0732,0,0,0,0,0,0,0.0256,0.0423,0.0455,0.0585,0.0606,0.0657,0.0668,0.0686,0.0698,0.0697,0.0723,0.0726,0.0729,0.0746,0.0746,0.075,0.0769,0.077,0.0731,0.0726,0.0723,0.0694,0.0762,0,0,0,0,0,0.0275,0.0402,0.048,0.0575,0.0586,0.0623,0.0642,0.0654,0.0681,0.0686,0.0703,0.072,0.0734,0.0737,0.0752,0.0757,0.0778,0.0753,0.0749,0.0746,0.0727,0.0766,0.0764,0.0788,0.0788,0.0788,0,0,0.0284,0.0382,0.0458,0.0568,0.059,0.0576,0.0631,0.0653,0.0637,0.0688,0.0674,0.071,0.0734,0.0733,0.0736,0.0743,0.075,0.0745,0.0742,0.0724,0.0765,0.0763,0.0761,0.0787,0.0787,0.0787,0,0,0.0284,0.0431,0.0482,0.0497,0.0533,0.0557,0.056,0.0598,0.061,0.0614,0.0644,0.067,0.069,0.0703,0.0713,0.0699,0.0732,0.0708,0.0661,0.07,0.0698,0.0697,0.0717,0.0718,0.0703,0.0703,0.0702,0,0.0261,0.0349,0.0481,0.0469,0.0463,0.0539,0.0493,0.0527,0.0559,0.0567,0.0595,0.0642,0.067,0.0671,0.0666,0.0689,0.0712,0.0676,0.0694,0.0693,0.0693,0.0714,0.0716,0.07,0.07,0.0701,0.0701,0,0.0254,0.0291,0.0304,0.034,0.035,0.0337,0.0381,0.0396,0.0435,0.0468,0.0497,0.0556,0.0579,0.0603,0.0629,0.0637,0.0656,0.0689,0.0703,0.0687,0.0711,0.0713,0.0696,0.0697,0.0698,0.0699,0,0,0.0279,0.0295,0.0291,0.0237,0.0273,0.0265,0.0267,0.0278,0.0282,0.0345,0.0352,0.0405,0.0469,0.0485,0.0541,0.058,0.0607,0.0626,0.063,0.064,0.0681,0.0649,0.0649,0.065,0.065,0.065,0.0697,0,0.0196,0.0115,0.0175,0.0075,0.0015,0.0083,0.0076,0.011,0.0176,0.0217,0.0316,0.0351,0.0417,0.0443,0.0492,0.0588,0.0612,0.059,0.0699,0.0701,0.0671,0.065,0.0684,0.0724,0.07,0.07,0.0701,0,0.0146,0.0091,-0.0033,-0.0096,-0.0108,-0.0134,-0.0126,-0.0119,-0.0013,0.004,0.0122,0.0225,0.0301,0.037,0.0498,0.0485,0.0561,0.0636,0.0641,0.0626,0.0674,0.0738,0.0731,0.0878,0.0705,0.0705,0.0704,0,0.0033,-0.0051,-0.0164,-0.0189,-0.0232,-0.0255,-0.0252,-0.0176,-0.0156,-0.0053,-0.0011,0.0109,0.0172,0.0298,0.0441,0.0484,0.0575,0.0661,0.0693,0.0692,0.0746,0.0748,0.0886,0.0723,0.0723,0.0723,0.0723,0,-0.0079,-0.0168,-0.0227,-0.0299,-0.0402,-0.0374,-0.0416,-0.0379,-0.0292,-0.0268,-0.0107,-0.0064,0.016,0.0257,0.0399,0.0526,0.0535,0.0667,0.0698,0.0727,0.0727,0.0878,0.0936,0.0725,0.0724,0.0724,0.0724,0,-0.0193,-0.0229,-0.0373,-0.0453,-0.0467,-0.0538,-0.0527,-0.0525,-0.0443,-0.0398,-0.0366,-0.0191,-0.0051,0.0134,0.0329,0.0449,0.0663,0.0612,0.0613,0.0642,0.0862,0.0914,0.1025,0.1097,0.0714,0.0714,0.0713,0,-0.0255,-0.035,-0.0494,-0.0555,-0.0591,-0.0659,-0.0672,-0.0613,-0.0587,-0.0484,-0.0462,-0.0318,-0.0204,0.0045,0.0283,0.0502,0.0624,0.0634,0.0728,0.0854,0.0937,0.0976,0.1032,0.0791,0.0791,0.0791,0.0792,0,-0.0391,-0.0445,-0.0562,-0.0692,-0.0747,-0.0805,-0.0813,-0.0816,-0.0725,-0.0681,-0.0604,-0.0507,-0.0237,0.004,0.0299,0.0446,0.0746,0.0644,0.0799,0.1008,0.1037,0.1127,0.0766,0.0793,0.0793,0.0793,0.0793,0.0793,-0.0465,-0.0578,-0.0709,-0.0827,-0.0883,-0.0917,-0.0944,-0.0921,-0.0902,-0.0796,-0.0714,-0.0539,-0.0134,0.0282,0.042,0.0778,0.0781,0.0945,0.0997,0.1025,0.109,0.0696,0.0737,0.0736,0.0736,0.0736,0.0735,0,-0.055,-0.0673,-0.0809,-0.0932,-0.0985,-0.0988,-0.1,-0.0987,-0.0968,-0.0848,-0.0748,-0.0311,0.0078,0.0461,0.0953,0.1142,0.1213,0.1235,0.135,0.1394,0.1086,0.1087,0.1175,0.1175,0.1175,0.1175,0.1175,0.1174,-0.0598,-0.0765,-0.0853,-0.0981,-0.1033,-0.1064,-0.1066,-0.1043,-0.0955,-0.0745,-0.0497,-0.0297,0.0257,0.1008,0.146,0.1503,0.1686,0.1641,0.1724,0.1573,0.1552,0.1533,0.1551,0.1735,0.1735,0.205,0.2053,0.2056]}],[{"header":{"parameterUnit":"m.s-1","parameterCategory":2,"la1":30.2991,"la2":30.254,"lo1":-89.0895,"lo2":-89.0444,"dy":0.0017,"dx":0.0017,"nx":28,"ny":28,"refTime":"2025-08-04T03:00:00:Z","depth":"2","parameterNumber":2,"parameterNumberName":"U-component_of_CURRENTS"},"data":[0,0,0,0,0,0,0,0,0,0,0,0,0,0,0,0,0,0,0,0,0,0,0,0,0,0,0,0,0,0,0,0,0,0,0,0,0,0,0,0,0,0,0,0,0,0,0,0,0,0,0,0,0,0,0,0,0,0,-0.1608,-0.1608,0,-0.1639,-0.1639,-0.164,-0.1639,-0.1638,-0.1638,-0.1637,-0.1872,-0.1879,-0.1885,0,0,0,0,0,0,0,0,0,0,0,0,0,-0.1672,-0.167,-0.1608,-0.1608,-0.1608,-0.1639,-0.1639,-0.164,-0.1639,-0.1638,-0.1638,-0.1637,-0.187,-0.1878,-0.1886,0,0,0,0,0,0,0,0,0,0,0,0,0,-0.1669,-0.1669,-0.1608,-0.161,-0.1611,-0.1639,-0.1639,-0.164,-0.1639,-0.1638,-0.1637,-0.1637,-0.1867,-0.1877,-0.1887,-0.1967,0,0,-0.1918,-0.1923,0,0,0,0,0,0,0,0,-0.1669,-0.1667,-0.161,-0.161,-0.161,-0.1633,-0.1748,-0.1759,-0.1639,-0.163,-0.1637,-0.1636,-0.1811,-0.1825,-0.1832,-0.1978,-0.1988,-0.1919,-0.1925,-0.193,-0.1932,0,0,0,0,0,0,0,-0.1669,-0.1666,-0.1622,-0.161,-0.161,-0.1652,-0.165,-0.175,-0.173,-0.1631,-0.163,-0.1631,-0.1812,-0.1822,-0.1839,-0.1992,-0.1919,-0.1928,-0.1934,-0.1938,-0.2257,-0.2259,0,0,0,0,0,0,-0.1656,-0.1665,-0.1621,-0.1622,-0.1636,-0.1651,-0.1649,-0.1628,-0.1724,-0.1736,-0.1632,-0.1631,-0.1805,-0.1827,-0.1847,-0.2019,-0.193,-0.1939,-0.1945,-0.2254,-0.2257,-0.226,0,0,0,0,0,0,-0.1657,-0.1651,-0.1619,-0.1645,-0.1644,-0.165,-0.1627,-0.1629,-0.1639,-0.1723,-0.1739,-0.164,-0.1806,-0.1833,-0.201,-0.2025,-0.1944,-0.1953,-0.2252,-0.2255,-0.2258,-0.2318,0,0,0,0,0,0,-0.1658,-0.165,-0.1634,-0.1643,-0.1642,-0.1651,-0.1628,-0.163,-0.164,-0.1639,-0.1736,-0.1756,-0.1807,-0.1995,-0.202,-0.2038,-0.1961,-0.2249,-0.2253,-0.2257,-0.2314,-0.2324,-0.2332,0,0,0,0,0,-0.166,-0.163,-0.1633,-0.1628,-0.1617,-0.1652,-0.1657,-0.166,-0.1641,-0.1662,-0.1772,-0.1753,-0.2036,-0.2009,-0.2037,-0.2057,-0.2246,-0.2252,-0.2257,-0.2309,-0.2322,-0.2332,0,0,0,0,0,0,-0.1657,-0.1627,-0.1631,-0.1595,-0.1634,-0.1652,-0.1658,-0.1664,-0.1754,-0.1762,-0.1837,-0.187,-0.2008,-0.2041,-0.2007,-0.2157,-0.2116,-0.2127,-0.2146,-0.2158,-0.2167,-0.2146,-0.1969,0,0,0,0,0,-0.1648,-0.1608,-0.1629,-0.1607,-0.1623,-0.1645,-0.1657,-0.1667,-0.174,-0.1771,-0.1856,-0.1946,-0.2048,-0.2115,-0.2203,-0.2327,-0.2293,-0.2339,-0.2349,-0.2356,-0.2357,-0.236,-0.2368,-0.2277,-0.2277,-0.2277,0,0,-0.1647,-0.162,-0.1604,-0.1604,-0.1626,-0.1687,-0.165,-0.1674,-0.1767,-0.1794,-0.1956,-0.1996,-0.2091,-0.2223,-0.228,-0.2259,-0.236,-0.2363,-0.2369,-0.2366,-0.2366,-0.2375,-0.2382,-0.2281,-0.228,-0.2279,0,0,-0.1633,-0.1603,-0.1584,-0.162,-0.1648,-0.1695,-0.1706,-0.1756,-0.1822,-0.1993,-0.2007,-0.2073,-0.2267,-0.2302,-0.2356,-0.2473,-0.2408,-0.2474,-0.2517,-0.252,-0.2526,-0.2532,-0.2467,-0.2466,-0.2479,-0.248,-0.248,0,-0.1639,-0.1613,-0.1598,-0.1617,-0.1666,-0.1708,-0.1768,-0.1861,-0.1978,-0.2051,-0.2068,-0.2247,-0.2306,-0.242,-0.2453,-0.249,-0.2461,-0.2468,-0.2529,-0.2534,-0.2539,-0.2471,-0.2469,-0.2483,-0.2483,-0.2482,-0.2482,0,-0.1621,-0.1637,-0.1639,-0.1689,-0.1753,-0.18,-0.1933,-0.2045,-0.2137,-0.2199,-0.2339,-0.2409,-0.2487,-0.2499,-0.2539,-0.2575,-0.253,-0.2536,-0.2492,-0.2551,-0.2476,-0.2473,-0.2488,-0.2487,-0.2486,-0.2485,0,0,-0.1555,-0.1615,-0.1621,-0.1679,-0.1792,-0.1846,-0.2055,-0.2221,-0.2324,-0.2439,-0.2536,-0.2667,-0.2603,-0.2653,-0.2634,-0.2637,-0.2626,-0.2603,-0.2601,-0.2521,-0.2583,-0.2478,-0.2464,-0.2646,-0.2647,-0.2648,-0.2503,0,-0.1564,-0.1595,-0.1657,-0.179,-0.1839,-0.1997,-0.2173,-0.233,-0.248,-0.2594,-0.2637,-0.2706,-0.2696,-0.268,-0.2693,-0.2629,-0.2628,-0.2661,-0.2552,-0.2547,-0.2435,-0.2462,-0.2294,-0.2146,-0.2499,-0.2499,-0.2499,0,-0.1537,-0.1559,-0.1655,-0.1831,-0.1874,-0.1993,-0.2254,-0.2412,-0.2603,-0.2699,-0.2758,-0.2761,-0.2755,-0.274,-0.2683,-0.2702,-0.2659,-0.2616,-0.261,-0.2491,-0.244,-0.2154,-0.2127,-0.2493,-0.2493,-0.2494,-0.2494,0,-0.1467,-0.1585,-0.1662,-0.1715,-0.1916,-0.2048,-0.2188,-0.2415,-0.2514,-0.2707,-0.2712,-0.2775,-0.2705,-0.2718,-0.2628,-0.2659,-0.2539,-0.2569,-0.2439,-0.2427,-0.2251,-0.2223,-0.2564,-0.2564,-0.2564,-0.2565,-0.2565,0,-0.1449,-0.1517,-0.1631,-0.168,-0.1812,-0.1972,-0.2144,-0.2336,-0.2463,-0.2515,-0.2676,-0.2658,-0.2696,-0.2633,-0.2621,-0.248,-0.2531,-0.2434,-0.2396,-0.2264,-0.2241,-0.2529,-0.2527,-0.2559,-0.256,-0.2561,-0.2562,0,-0.1397,-0.1457,-0.1561,-0.1736,-0.1787,-0.1887,-0.206,-0.2129,-0.2303,-0.2363,-0.2383,-0.2483,-0.2443,-0.2454,-0.2414,-0.2388,-0.2331,-0.2285,-0.209,-0.2034,-0.2219,-0.2222,-0.2129,-0.2124,-0.212,-0.2117,-0.2114,0,-0.1377,-0.1408,-0.1561,-0.1588,-0.168,-0.1805,-0.1851,-0.2039,-0.2091,-0.2242,-0.2209,-0.221,-0.2214,-0.2107,-0.2093,-0.2045,-0.2169,-0.1864,-0.1926,-0.2208,-0.2181,-0.219,-0.2198,-0.169,-0.1684,-0.1679,-0.1675,0,-0.1356,-0.1414,-0.1479,-0.1507,-0.1557,-0.1619,-0.1709,-0.1718,-0.1912,-0.1939,-0.1976,-0.1983,-0.1924,-0.1811,-0.176,-0.1731,-0.1873,-0.1761,-0.2095,-0.1843,-0.1788,-0.1764,-0.1787,-0.1631,-0.1635,-0.1639,-0.1641,-0.1643,-0.134,-0.1369,-0.1419,-0.1433,-0.1449,-0.1458,-0.1485,-0.1539,-0.1576,-0.165,-0.171,-0.1687,-0.1678,-0.1527,-0.1448,-0.1409,-0.1562,-0.1528,-0.1546,-0.1568,-0.1561,-0.1505,-0.1288,-0.129,-0.1292,-0.1294,-0.1295,0,-0.1319,-0.1331,-0.1328,-0.1352,-0.1274,-0.1343,-0.138,-0.1375,-0.1387,-0.1417,-0.1438,-0.1302,-0.1209,-0.1221,-0.1088,-0.1069,-0.1093,-0.1034,-0.1073,-0.1115,-0.1153,-0.1129,-0.0738,-0.0737,-0.0735,-0.0734,0,0,-0.1324,-0.1277,-0.1243,-0.1135,-0.114,-0.1095,-0.1105,-0.1101,-0.1128,-0.1102,-0.1078,-0.1152,-0.1175,-0.0961,-0.0904,-0.0799,-0.0954,-0.0756,-0.1199,-0.1285,-0.1321,-0.1426,-0.1434,0,0,0,0,0]},{"header":{"parameterUnit":"m.s-1","parameterCategory":2,"la1":30.2991,"la2":30.254,"lo1":-89.0895,"lo2":-89.0444,"dy":0.0017,"dx":0.0017,"nx":28,"ny":28,"refTime":"2025-08-04T03:00:00:Z","depth":"2","parameterNumber":3,"parameterNumberName":"V-component_of_CURRENTS"},"data":[0,0,0,0,0,0,0,0,0,0,0,0,0,0,0,0,0,0,0,0,0,0,0,0,0,0,0,0,0,0,0,0,0,0,0,0,0,0,0,0,0,0,0,0,0,0,0,0,0,0,0,0,0,0,0,0,0,0,-0.0385,-0.0385,0,-0.0329,-0.0327,-0.0326,-0.03,-0.0301,-0.0301,-0.0302,-0.0177,-0.0173,-0.0169,0,0,0,0,0,0,0,0,0,0,0,0,0,-0.0283,-0.0285,-0.0385,-0.0385,-0.0385,-0.0329,-0.0327,-0.0326,-0.03,-0.0301,-0.0301,-0.0302,-0.0178,-0.0174,-0.0169,0,0,0,0,0,0,0,0,0,0,0,0,0,-0.0282,-0.0286,-0.0385,-0.037,-0.0368,-0.0329,-0.0327,-0.0326,-0.03,-0.0301,-0.0302,-0.0302,-0.018,-0.0174,-0.0168,-0.0115,0,0,-0.0151,-0.0148,0,0,0,0,0,0,0,0,-0.0282,-0.0285,-0.0372,-0.0371,-0.0369,-0.0328,-0.0246,-0.0254,-0.03,-0.0319,-0.0302,-0.0303,-0.0224,-0.0215,-0.0195,-0.0109,-0.0104,-0.015,-0.0147,-0.0144,-0.0142,0,0,0,0,0,0,0,-0.0282,-0.0286,-0.0357,-0.0372,-0.037,-0.0301,-0.0303,-0.0246,-0.0262,-0.0318,-0.0317,-0.032,-0.0222,-0.02,-0.0191,-0.0102,-0.015,-0.0145,-0.0142,-0.0139,0.0054,0.0056,0,0,0,0,0,0,-0.0311,-0.0288,-0.0359,-0.0356,-0.0333,-0.0304,-0.0305,-0.0335,-0.0264,-0.0256,-0.0319,-0.0319,-0.021,-0.0198,-0.0187,-0.0108,-0.0144,-0.0139,-0.0135,0.0053,0.0055,0.0057,0,0,0,0,0,0,-0.0309,-0.0319,-0.0361,-0.0323,-0.0324,-0.0307,-0.0339,-0.0334,-0.0316,-0.0267,-0.0257,-0.0309,-0.021,-0.0195,-0.0131,-0.0104,-0.0136,-0.0131,0.0051,0.0053,0.0056,0.0043,0,0,0,0,0,0,-0.0307,-0.0319,-0.0346,-0.0326,-0.0328,-0.035,-0.0338,-0.0332,-0.032,-0.0319,-0.0254,-0.0244,-0.021,-0.014,-0.0125,-0.0096,-0.0126,0.0049,0.0052,0.0055,0.0042,0.0045,0.0048,0,0,0,0,0,-0.0304,-0.0352,-0.0348,-0.0356,-0.0368,-0.0351,-0.0344,-0.0328,-0.0319,-0.0314,-0.026,-0.0246,-0.011,-0.0134,-0.0117,-0.0086,0.0047,0.0051,0.0055,0.004,0.0044,0.0048,0,0,0,0,0,0,-0.0326,-0.0354,-0.0349,-0.0405,-0.0381,-0.0349,-0.0349,-0.0328,-0.0281,-0.0277,-0.0223,-0.0207,-0.0141,-0.0108,-0.0136,-0.0019,-0.0029,-0.0022,-0.0045,-0.0041,-0.0038,-0.0025,-0.0121,0,0,0,0,0,-0.0344,-0.0386,-0.0376,-0.0416,-0.0407,-0.0371,-0.0361,-0.0346,-0.0306,-0.0288,-0.0242,-0.018,-0.0109,-0.0075,-0.0019,0.0047,0.0081,0.0079,0.0082,0.0085,0.0108,0.0209,0.0224,0.0069,0.0069,0.0069,0,0,-0.035,-0.0383,-0.0397,-0.0421,-0.0399,-0.0398,-0.0366,-0.0356,-0.0329,-0.0278,-0.0227,-0.017,-0.0089,-0.0018,0.0015,0.0011,0.0133,0.009,0.0091,0.0114,0.0215,0.023,0.0243,0.0071,0.0071,0.007,0,0,-0.0394,-0.0422,-0.0459,-0.0451,-0.0443,-0.0419,-0.0419,-0.0381,-0.0335,-0.0278,-0.0224,-0.0139,-0.0063,0.002,0.0071,0.0133,0.0145,0.0132,0.0164,0.026,0.0274,0.0287,0.0285,0.0298,0.0135,0.0135,0.0135,0,-0.0401,-0.0467,-0.0458,-0.0488,-0.049,-0.0435,-0.045,-0.0385,-0.0327,-0.0264,-0.0269,-0.0088,-0.003,0.0108,0.0125,0.0144,0.0158,0.0137,0.0264,0.0278,0.0291,0.0287,0.0302,0.0135,0.0135,0.0135,0.0135,0,-0.0467,-0.0507,-0.0524,-0.0553,-0.0543,-0.0549,-0.0478,-0.042,-0.0364,-0.0293,-0.0151,-0.0049,0.006,0.0094,0.013,0.0262,0.0223,0.0251,0.0249,0.0306,0.0297,0.0312,0.0135,0.0135,0.0135,0.0135,0,0,-0.0512,-0.0562,-0.0569,-0.059,-0.0583,-0.0583,-0.0506,-0.0416,-0.0335,-0.0236,-0.0129,0.0029,0.0096,0.016,0.0231,0.0327,0.041,0.032,0.0325,0.0307,0.0546,0.0476,0.0485,0.0452,0.0456,0.046,0.0478,0,-0.0559,-0.0643,-0.0649,-0.0688,-0.0711,-0.0637,-0.0581,-0.0479,-0.0351,-0.0226,-0.005,0.0063,0.012,0.0173,0.0288,0.0384,0.046,0.0398,0.0506,0.0508,0.0433,0.0507,0.0486,0.05,0.0493,0.0495,0.0497,0,-0.0623,-0.0675,-0.0738,-0.0757,-0.0758,-0.0766,-0.0649,-0.0582,-0.036,-0.0253,-0.0071,0.005,0.0226,0.0255,0.0471,0.0417,0.0486,0.0556,0.0559,0.0522,0.0471,0.0458,0.0528,0.0523,0.0521,0.0519,0.0517,0,-0.0674,-0.0735,-0.0796,-0.0808,-0.081,-0.0793,-0.0769,-0.0589,-0.0507,-0.0258,-0.0185,0.006,0.0136,0.0322,0.0442,0.047,0.0625,0.0684,0.0685,0.0675,0.0699,0.0686,0.0847,0.0847,0.0847,0.0847,0.0847,0,-0.0741,-0.0784,-0.0829,-0.0863,-0.0904,-0.0871,-0.0824,-0.0719,-0.0563,-0.0463,-0.0222,-0.0113,0.0158,0.0277,0.0428,0.0561,0.0611,0.0709,0.0709,0.0683,0.067,0.0738,0.0725,0.0847,0.0847,0.0847,0.0847,0,-0.0789,-0.0819,-0.0889,-0.0922,-0.0937,-0.0962,-0.0936,-0.0856,-0.0718,-0.0578,-0.0519,-0.0272,-0.0081,0.0126,0.0375,0.049,0.0659,0.068,0.0571,0.0561,0.0651,0.0638,0.0761,0.076,0.0759,0.0757,0.0757,0,-0.0827,-0.0872,-0.0951,-0.0985,-0.1013,-0.1034,-0.1019,-0.0931,-0.0844,-0.0667,-0.0611,-0.0425,-0.0236,0.0041,0.0294,0.0529,0.057,0.0605,0.0716,0.0672,0.0659,0.0647,0.0636,0.0708,0.0707,0.0706,0.0705,0,-0.0892,-0.0919,-0.0974,-0.1045,-0.1076,-0.1091,-0.1076,-0.1059,-0.0916,-0.0824,-0.0681,-0.0542,-0.0259,0.0023,0.0266,0.0419,0.0589,0.0592,0.062,0.0719,0.0622,0.0607,0.0599,0.0696,0.0697,0.0698,0.0698,0.0698,-0.0931,-0.0985,-0.1045,-0.1101,-0.1126,-0.112,-0.1113,-0.1067,-0.1001,-0.0841,-0.0746,-0.0521,-0.0281,0.013,0.031,0.0497,0.0548,0.0642,0.0647,0.0652,0.063,0.0535,0.0583,0.0583,0.0583,0.0583,0.0583,0,-0.0981,-0.1033,-0.1087,-0.1139,-0.1133,-0.1145,-0.1115,-0.1071,-0.0999,-0.085,-0.071,-0.0428,-0.0144,0.0101,0.0397,0.0564,0.0602,0.0589,0.0627,0.0634,0.064,0.062,0.0569,0.0569,0.057,0.057,0,0,-0.1014,-0.1076,-0.1097,-0.1119,-0.1132,-0.1116,-0.1092,-0.1039,-0.0935,-0.0791,-0.063,-0.0416,-0.0122,0.0084,0.0291,0.0442,0.0498,0.0454,0.0449,0.0476,0.0481,0.0653,0.0626,0,0,0,0,0]}],[{"header":{"parameterUnit":"m.s-1","parameterCategory":2,"la1":30.2991,"la2":30.254,"lo1":-89.0895,"lo2":-89.0444,"dy":0.0017,"dx":0.0017,"nx":28,"ny":28,"refTime":"2025-08-04T03:00:00:Z","depth":"4","parameterNumber":2,"parameterNumberName":"U-component_of_CURRENTS"},"data":[0,0,0,0,0,0,0,0,0,0,0,0,0,0,0,0,0,0,0,0,0,0,0,0,0,0,0,0,0,0,0,0,0,0,0,0,0,0,0,0,0,0,0,0,0,0,0,0,0,0,0,0,0,0,0,0,0,0,-0.1083,-0.1084,0,-0.1184,-0.1185,-0.1185,-0.1215,-0.1214,-0.1214,-0.1214,-0.1198,-0.1198,-0.1197,0,0,0,0,0,0,0,0,0,0,0,0,0,-0.1075,-0.1074,-0.1082,-0.1084,-0.1086,-0.1184,-0.1185,-0.1186,-0.1215,-0.1214,-0.1214,-0.1214,-0.1198,-0.1198,-0.1197,0,0,0,0,0,0,0,0,0,0,0,0,0,-0.1113,-0.1073,-0.1082,-0.1115,-0.1119,-0.1183,-0.1185,-0.1186,-0.1215,-0.1214,-0.1214,-0.1214,-0.1198,-0.1198,-0.1197,-0.1199,0,0,-0.1196,-0.1196,0,0,0,0,0,0,0,0,-0.1111,-0.1113,-0.1109,-0.1113,-0.1118,-0.119,-0.1177,-0.1186,-0.1215,-0.1174,-0.1214,-0.1214,-0.1187,-0.1188,-0.1203,-0.1199,-0.1198,-0.1196,-0.1196,-0.1195,-0.1195,0,0,0,0,0,0,0,-0.1108,-0.111,-0.1118,-0.1111,-0.1116,-0.1181,-0.1184,-0.1179,-0.1175,-0.1178,-0.1181,-0.1199,-0.1188,-0.1203,-0.1202,-0.1198,-0.1196,-0.1196,-0.1195,-0.1195,-0.1221,-0.1222,0,0,0,0,0,0,-0.1095,-0.1106,-0.1115,-0.1122,-0.1119,-0.118,-0.1184,-0.1164,-0.1178,-0.1182,-0.1199,-0.12,-0.1204,-0.1203,-0.1202,-0.1233,-0.1195,-0.1195,-0.1195,-0.122,-0.1221,-0.1223,0,0,0,0,0,0,-0.1094,-0.1093,-0.1111,-0.1122,-0.113,-0.118,-0.1158,-0.1166,-0.1201,-0.1197,-0.1197,-0.1228,-0.1204,-0.1202,-0.1222,-0.1231,-0.1195,-0.1194,-0.1219,-0.1221,-0.1222,-0.1277,0,0,0,0,0,0,-0.1093,-0.1091,-0.1084,-0.112,-0.1128,-0.1166,-0.1159,-0.1168,-0.1213,-0.1216,-0.1221,-0.1219,-0.1204,-0.1223,-0.1222,-0.123,-0.1194,-0.1218,-0.122,-0.1222,-0.1274,-0.128,-0.1285,0,0,0,0,0,-0.1091,-0.1083,-0.1081,-0.1084,-0.111,-0.1168,-0.1179,-0.1212,-0.1215,-0.124,-0.1244,-0.122,-0.1233,-0.1224,-0.1222,-0.123,-0.1217,-0.1219,-0.1221,-0.1271,-0.1279,-0.1285,0,0,0,0,0,0,-0.1077,-0.1086,-0.1086,-0.1078,-0.1128,-0.1175,-0.1209,-0.1226,-0.1253,-0.1255,-0.1239,-0.1238,-0.1257,-0.1241,-0.1231,-0.1243,-0.1218,-0.1219,-0.1256,-0.1263,-0.1269,-0.1288,-0.1194,0,0,0,0,0,-0.1068,-0.1056,-0.1095,-0.1092,-0.1122,-0.1168,-0.1199,-0.1223,-0.1251,-0.1264,-0.1268,-0.1265,-0.1263,-0.1262,-0.1262,-0.1272,-0.1263,-0.1273,-0.1279,-0.1284,-0.13,-0.1292,-0.1298,-0.123,-0.123,-0.1229,0,0,-0.1051,-0.1066,-0.1053,-0.109,-0.1131,-0.1176,-0.1186,-0.1243,-0.1267,-0.1255,-0.129,-0.1291,-0.1273,-0.1287,-0.1292,-0.1274,-0.1301,-0.1287,-0.1291,-0.1304,-0.1294,-0.1301,-0.1307,-0.1231,-0.1231,-0.1231,0,0,-0.1052,-0.1043,-0.1054,-0.11,-0.1172,-0.1198,-0.1219,-0.128,-0.1297,-0.1335,-0.1325,-0.1347,-0.1343,-0.1341,-0.1332,-0.1371,-0.1336,-0.1357,-0.1397,-0.1389,-0.1394,-0.1399,-0.1405,-0.141,-0.1354,-0.1354,-0.1354,0,-0.1038,-0.1049,-0.1074,-0.1125,-0.1159,-0.1209,-0.125,-0.128,-0.1334,-0.134,-0.1351,-0.1367,-0.137,-0.1369,-0.1397,-0.1385,-0.1375,-0.137,-0.1396,-0.1401,-0.1405,-0.1409,-0.1414,-0.1357,-0.1357,-0.1356,-0.1356,0,-0.1064,-0.1084,-0.111,-0.1163,-0.1206,-0.1254,-0.1302,-0.1338,-0.1362,-0.1379,-0.1404,-0.1422,-0.1428,-0.1431,-0.1435,-0.1456,-0.1439,-0.1408,-0.1379,-0.1415,-0.1417,-0.1421,-0.1361,-0.136,-0.1359,-0.1359,0,0,-0.0992,-0.1098,-0.1109,-0.1142,-0.1229,-0.1262,-0.1308,-0.1349,-0.1355,-0.1412,-0.1414,-0.1463,-0.1479,-0.1475,-0.1475,-0.1487,-0.1531,-0.1473,-0.1471,-0.148,-0.1521,-0.1441,-0.1437,-0.1495,-0.1496,-0.1496,-0.1515,0,-0.1006,-0.1087,-0.1136,-0.1199,-0.1241,-0.1295,-0.1321,-0.1362,-0.1382,-0.1396,-0.1426,-0.1435,-0.1486,-0.149,-0.1521,-0.1522,-0.1542,-0.153,-0.1484,-0.1484,-0.1408,-0.1439,-0.1499,-0.1517,-0.1518,-0.1519,-0.1519,0,-0.1017,-0.1067,-0.1132,-0.1202,-0.1225,-0.1266,-0.13,-0.1334,-0.1362,-0.1375,-0.1409,-0.142,-0.1479,-0.1494,-0.1554,-0.1539,-0.1554,-0.1556,-0.1554,-0.1465,-0.141,-0.1471,-0.1526,-0.1525,-0.1525,-0.1524,-0.1524,0,-0.0954,-0.1058,-0.11,-0.1131,-0.1219,-0.1247,-0.1291,-0.1326,-0.1341,-0.1362,-0.1383,-0.1417,-0.147,-0.1482,-0.1561,-0.1541,-0.1605,-0.1557,-0.1498,-0.1493,-0.1535,-0.1529,-0.1586,-0.1586,-0.1586,-0.1586,-0.1586,0,-0.0933,-0.097,-0.1078,-0.11,-0.1132,-0.1213,-0.1231,-0.127,-0.1309,-0.134,-0.1383,-0.1422,-0.1477,-0.1529,-0.1547,-0.1562,-0.1602,-0.152,-0.1491,-0.1559,-0.1556,-0.1538,-0.1532,-0.1586,-0.1586,-0.1586,-0.1586,0,-0.0858,-0.0936,-0.0982,-0.1076,-0.1107,-0.113,-0.1214,-0.1223,-0.1288,-0.1332,-0.1351,-0.1447,-0.1516,-0.1556,-0.1589,-0.1564,-0.155,-0.1542,-0.1646,-0.1621,-0.1439,-0.1436,-0.1433,-0.143,-0.1428,-0.1426,-0.1424,0,-0.0833,-0.085,-0.0943,-0.0968,-0.1017,-0.1069,-0.1104,-0.1189,-0.1221,-0.1359,-0.1386,-0.1477,-0.1535,-0.1523,-0.1565,-0.1543,-0.1537,-0.1514,-0.1452,-0.145,-0.1423,-0.1424,-0.1424,-0.1421,-0.142,-0.142,-0.1419,0,-0.0758,-0.0792,-0.0821,-0.0876,-0.0928,-0.0978,-0.1059,-0.1075,-0.1201,-0.1278,-0.1368,-0.139,-0.147,-0.1478,-0.1489,-0.1477,-0.1502,-0.1489,-0.1492,-0.1434,-0.1435,-0.1411,-0.1414,-0.1411,-0.1412,-0.1413,-0.1413,0,-0.0693,-0.0686,-0.073,-0.0769,-0.0834,-0.0892,-0.0941,-0.1023,-0.1073,-0.1247,-0.1285,-0.1391,-0.1484,-0.1449,-0.1462,-0.1433,-0.1387,-0.1322,-0.1333,-0.1342,-0.1301,-0.1288,-0.1203,0,0,0,0,0,-0.0626,-0.0607,-0.0629,-0.068,-0.0747,-0.0798,-0.0914,-0.0977,-0.112,-0.1151,-0.121,-0.1273,-0.1299,-0.1345,-0.1289,-0.1392,-0.1378,-0.1319,-0.1305,-0.1367,-0.1376,-0.1335,0,0,0,0,0,0,-0.0582,-0.0582,-0.0586,-0.0601,-0.0629,-0.071,-0.0788,-0.0895,-0.092,-0.1063,-0.1078,-0.1177,-0.1207,-0.1303,-0.1255,-0.1265,-0.1226,-0.1374,-0.137,-0.1362,-0.137,-0.1378,-0.1339,0,0,0,0,0]},{"header":{"parameterUnit":"m.s-1","parameterCategory":2,"la1":30.2991,"la2":30.254,"lo1":-89.0895,"lo2":-89.0444,"dy":0.0017,"dx":0.0017,"nx":28,"ny":28,"refTime":"2025-08-04T03:00:00:Z","depth":"4","parameterNumber":3,"parameterNumberName":"V-component_of_CURRENTS"},"data":[0,0,0,0,0,0,0,0,0,0,0,0,0,0,0,0,0,0,0,0,0,0,0,0,0,0,0,0,0,0,0,0,0,0,0,0,0,0,0,0,0,0,0,0,0,0,0,0,0,0,0,0,0,0,0,0,0,0,-0.0358,-0.0357,0,-0.0286,-0.0285,-0.0284,-0.0273,-0.0274,-0.0274,-0.0275,-0.0203,-0.0201,-0.0198,0,0,0,0,0,0,0,0,0,0,0,0,0,-0.0277,-0.0279,-0.0358,-0.0357,-0.0356,-0.0286,-0.0285,-0.0284,-0.0273,-0.0274,-0.0275,-0.0276,-0.0204,-0.0201,-0.0198,0,0,0,0,0,0,0,0,0,0,0,0,0,-0.0268,-0.028,-0.0358,-0.0344,-0.0342,-0.0286,-0.0285,-0.0283,-0.0272,-0.0274,-0.0275,-0.0276,-0.0205,-0.0201,-0.0197,-0.0148,0,0,-0.0185,-0.0183,0,0,0,0,0,0,0,0,-0.0268,-0.0271,-0.0347,-0.0345,-0.0343,-0.0291,-0.023,-0.0239,-0.0272,-0.0297,-0.0275,-0.0277,-0.0233,-0.0227,-0.0208,-0.0144,-0.0141,-0.0185,-0.0182,-0.0181,-0.0179,0,0,0,0,0,0,0,-0.0269,-0.0272,-0.0327,-0.0346,-0.0343,-0.0269,-0.0271,-0.023,-0.0257,-0.0295,-0.0294,-0.0289,-0.0232,-0.0212,-0.0206,-0.014,-0.0185,-0.0181,-0.0179,-0.0177,-0.0116,-0.0117,0,0,0,0,0,0,-0.0292,-0.0274,-0.033,-0.0325,-0.031,-0.0271,-0.0273,-0.0305,-0.0258,-0.0252,-0.0288,-0.0289,-0.0218,-0.0211,-0.0203,-0.0222,-0.0181,-0.0177,-0.0174,-0.0116,-0.0117,-0.0117,0,0,0,0,0,0,-0.0291,-0.0299,-0.0333,-0.0297,-0.0296,-0.0273,-0.0308,-0.0303,-0.0291,-0.0253,-0.0247,-0.0283,-0.0219,-0.0209,-0.0181,-0.0217,-0.0175,-0.0171,-0.0115,-0.0116,-0.0117,-0.0209,0,0,0,0,0,0,-0.029,-0.03,-0.0332,-0.03,-0.0299,-0.0313,-0.0306,-0.0301,-0.0286,-0.0287,-0.0246,-0.024,-0.0219,-0.0188,-0.0177,-0.0211,-0.0168,-0.0114,-0.0115,-0.0117,-0.0205,-0.0213,-0.022,0,0,0,0,0,-0.0288,-0.0326,-0.0335,-0.0341,-0.0345,-0.0313,-0.0305,-0.0288,-0.0285,-0.0281,-0.0258,-0.0242,-0.0191,-0.0184,-0.0172,-0.0205,-0.0113,-0.0115,-0.0116,-0.0201,-0.0211,-0.022,0,0,0,0,0,0,-0.0309,-0.0328,-0.0336,-0.0382,-0.0356,-0.0312,-0.0306,-0.0289,-0.0264,-0.0267,-0.0233,-0.0225,-0.0222,-0.0189,-0.0183,-0.0193,-0.0156,-0.0155,-0.0225,-0.0234,-0.0241,-0.0266,-0.0165,0,0,0,0,0,-0.0329,-0.0368,-0.0353,-0.0388,-0.0376,-0.0339,-0.0325,-0.0311,-0.0282,-0.0273,-0.0246,-0.0224,-0.0216,-0.0206,-0.0183,-0.0169,-0.0118,-0.0188,-0.0196,-0.0202,-0.0214,-0.0191,-0.0198,-0.0123,-0.0123,-0.0123,0,0,-0.0351,-0.0362,-0.0387,-0.0394,-0.037,-0.0367,-0.0333,-0.0314,-0.0324,-0.0267,-0.0269,-0.0242,-0.0216,-0.0219,-0.0215,-0.0198,-0.0183,-0.0205,-0.0211,-0.0219,-0.0194,-0.0201,-0.0207,-0.0124,-0.0124,-0.0124,0,0,-0.038,-0.0415,-0.044,-0.0427,-0.0401,-0.0384,-0.0382,-0.0341,-0.034,-0.0324,-0.0306,-0.03,-0.0261,-0.0267,-0.0263,-0.0292,-0.0225,-0.0285,-0.0344,-0.0322,-0.0328,-0.0333,-0.022,-0.0215,-0.0291,-0.0291,-0.0291,0,-0.04,-0.0445,-0.0434,-0.0439,-0.0442,-0.0399,-0.0409,-0.0396,-0.0358,-0.0363,-0.0342,-0.0317,-0.0296,-0.0322,-0.0344,-0.0314,-0.0253,-0.0314,-0.0333,-0.0337,-0.0341,-0.0225,-0.0217,-0.0296,-0.0295,-0.0295,-0.0294,0,-0.0432,-0.047,-0.0473,-0.0491,-0.0487,-0.0485,-0.0471,-0.0468,-0.0457,-0.0445,-0.0451,-0.0414,-0.0406,-0.0406,-0.0385,-0.0412,-0.0339,-0.0345,-0.0313,-0.0354,-0.0228,-0.0218,-0.0303,-0.0301,-0.0299,-0.0298,0,0,-0.047,-0.0497,-0.0499,-0.0523,-0.0519,-0.0517,-0.0543,-0.0552,-0.0569,-0.0543,-0.0559,-0.0562,-0.0531,-0.0525,-0.0496,-0.0483,-0.0442,-0.0431,-0.0428,-0.0324,-0.0317,-0.0286,-0.0271,-0.0452,-0.0452,-0.0453,-0.0198,0,-0.0495,-0.0534,-0.0541,-0.0586,-0.0606,-0.0599,-0.0627,-0.0634,-0.0625,-0.0624,-0.0607,-0.06,-0.0581,-0.0568,-0.0561,-0.0468,-0.0431,-0.0506,-0.0289,-0.0281,-0.0256,-0.0267,-0.0454,-0.019,-0.0188,-0.0186,-0.0185,0,-0.0516,-0.0549,-0.06,-0.0652,-0.0658,-0.0684,-0.0724,-0.0737,-0.0736,-0.0725,-0.0721,-0.0678,-0.0652,-0.0631,-0.0505,-0.0547,-0.0449,-0.0374,-0.0363,-0.0305,-0.0238,-0.0153,-0.0167,-0.0169,-0.017,-0.0171,-0.0172,0,-0.054,-0.059,-0.0643,-0.0658,-0.0703,-0.0738,-0.0761,-0.0775,-0.078,-0.0779,-0.0752,-0.0727,-0.0662,-0.0591,-0.0428,-0.0465,-0.025,-0.0277,-0.0146,-0.0136,-0.0198,-0.0196,-0.0204,-0.0204,-0.0205,-0.0205,-0.0206,0,-0.0565,-0.0606,-0.0664,-0.0694,-0.076,-0.0777,-0.0824,-0.0842,-0.0836,-0.0824,-0.0799,-0.0748,-0.0654,-0.0514,-0.0412,-0.0218,-0.0227,-0.0148,-0.0093,-0.023,-0.0236,-0.0186,-0.0187,-0.0196,-0.0198,-0.02,-0.0201,0,-0.0573,-0.061,-0.0676,-0.0748,-0.0774,-0.0819,-0.0857,-0.0872,-0.0863,-0.0836,-0.0826,-0.0725,-0.0553,-0.0409,-0.0225,-0.0158,-0.0007,0.0064,-0.001,0.0038,0.0097,0.0088,0.0218,0.022,0.0223,0.0224,0.0226,0,-0.0578,-0.0615,-0.0711,-0.0754,-0.0791,-0.085,-0.0879,-0.0895,-0.0889,-0.0807,-0.0777,-0.0612,-0.053,-0.0201,-0.0096,0.0133,0.0132,0.0237,0.006,0.0088,0.013,0.0117,0.0105,0.023,0.023,0.0231,0.0231,0,-0.059,-0.0627,-0.068,-0.077,-0.0825,-0.0868,-0.0902,-0.0894,-0.0873,-0.0853,-0.0707,-0.0566,-0.0349,-0.0174,0.0033,0.0167,0.0162,0.026,0.0253,0.0088,0.0104,0.014,0.0126,0.0239,0.0238,0.0237,0.0237,0,-0.0593,-0.0631,-0.0702,-0.0776,-0.0839,-0.0866,-0.0889,-0.0853,-0.0836,-0.0746,-0.0684,-0.0491,-0.0378,-0.0147,0.0028,0.0176,0.016,0.0161,0.0159,0.0152,0.0013,0.0017,0.0176,0,0,0,0,0,-0.0589,-0.063,-0.07,-0.0777,-0.0832,-0.0866,-0.0888,-0.0891,-0.0859,-0.0754,-0.0721,-0.0531,-0.0273,-0.0159,-0.0007,0.0029,0.0169,0.0207,0.0165,0.0283,0.0274,0.0117,0,0,0,0,0,0,-0.0589,-0.0652,-0.0691,-0.0752,-0.0796,-0.0845,-0.0859,-0.0843,-0.0779,-0.0728,-0.0584,-0.0511,-0.0258,-0.0352,-0.0006,0.0038,0.0025,0.0328,0.033,0.0288,0.028,0.0272,0.0109,0,0,0,0,0]}]]